Weather History for PABR - August, 2013

Change the Weather History Date:

Monday, August 26, 2013

  Actual Average Record
Temperature  
Mean Temperature 35 °F 38 °F  
Max Temperature 38 °F 42 °F 65 °F (1929)
Min Temperature 32 °F 33 °F 21 °F (1991)
Degree Days  
Heating Degree Days 30 27  
Month to date heating degree days 641 668  
Since 1 June heating degree days 2048 2295  
Since 1 July heating degree days 1270 1415  
Cooling Degree Days 0    
Month to date cooling degree days 0  
Year to date cooling degree days 0  
Since 1 June cooling degree days 0  
Moisture  
Dew Point 30 °F    
Average Humidity 0    
Maximum Humidity 0    
Minimum Humidity 0    
Precipitation  
Precipitation T in 0.03 in 0.38 in (1957)
Month to date precipitation 1.28 0.89  
Year to date precipitation 4.95 2.89  
Snow  
Snow T in 0.00 in 1.30 in (1933)
Month to date snowfall 0.5 0.6  
Since 1 June snowfall 0.8 1.5  
Since 1 July snowfall 0.5 0.8  
Snow Depth 0.00 in    
Sea Level Pressure  
Sea Level Pressure 30.04 in    
Wind  
Wind Speed 15 mph (East)    
Max Wind Speed 22 mph    
Max Gust Speed 26 mph    
Visibility 9 miles    
Events Snow    
T = Trace of Precipitation, MM = Missing Value Source: NWS Daily Summary

Daily Weather History Graph

Daily Weather History Graph

Search for Another Location

Airport or City:

Trip Planner

Search our weather history database for the weather conditions in past years. The results will help you decide how hot, cold, wet, or windy it might be!

Date:

Astronomy

Aug. 26, 2013 Rise Set
Actual Time 6:07 AM AKDT 10:46 PM AKDT
Civil Twilight 4:29 AM AKDT 12:20 AM AKDT
Nautical Twilight Sun does not set Sun does not set
Astronomical Twilight Sun does not set Sun does not set
Moon 9:03 PM AKDT (8/26) 5:17 PM AKDT (8/26)
Length of Visible Light 19h 51m
Length of Day
16h 38m
Waning Gibbous, 65% of the Moon is Illuminated
Aug 26
Waning Gibbous
Aug 28
Last Quarter
Sep 5
New
Sep 12
First Quarter
Sep 19
Full

Hourly Weather History & Observations

Time (AKDT) Temp. Windchill Dew Point Humidity Pressure Visibility Wind Dir Wind Speed Gust Speed Precip Events Conditions
12:53 AM 35.1 °F 29.3 °F 30.0 °F 82% 30.11 in 10.0 mi NE 6.9 mph - N/A   Overcast
1:53 AM 35.1 °F 28.6 °F 28.9 °F 78% 30.11 in 10.0 mi East 8.1 mph - N/A   Overcast
2:31 AM 33.8 °F 26.4 °F 28.4 °F 81% 30.10 in 10.0 mi East 9.2 mph - N/A   Overcast
2:45 AM 33.8 °F 27.0 °F 30.2 °F 87% 30.10 in 10.0 mi East 8.1 mph - N/A   Overcast
2:53 AM 34.0 °F 28.8 °F 30.0 °F 85% 30.11 in 10.0 mi East 5.8 mph - N/A   Overcast
3:53 AM 34.0 °F 26.0 °F 30.9 °F 89% 30.09 in 9.0 mi East 10.4 mph - N/A   Overcast
4:53 AM 33.1 °F 26.1 °F 28.0 °F 82% 30.10 in 10.0 mi ESE 8.1 mph - N/A   Overcast
5:53 AM 33.1 °F 25.5 °F 28.0 °F 82% 30.09 in 10.0 mi East 9.2 mph - N/A   Overcast
6:53 AM 33.1 °F 24.4 °F 28.0 °F 82% 30.08 in 10.0 mi ESE 11.5 mph - N/A   Overcast
7:53 AM 33.1 °F 24.4 °F 28.0 °F 82% 30.09 in 10.0 mi ESE 11.5 mph - N/A   Overcast
8:53 AM 33.1 °F 24.9 °F 28.9 °F 85% 30.09 in 10.0 mi ESE 10.4 mph - N/A   Overcast
9:53 AM 33.1 °F 25.5 °F 30.0 °F 89% 30.08 in 4.0 mi East 9.2 mph - 0.00 in Snow Light Snow
10:12 AM 33.8 °F 24.8 °F 30.2 °F 87% 30.07 in 3.0 mi East 12.7 mph - 0.00 in Snow Light Snow
10:29 AM 33.8 °F 23.9 °F 28.4 °F 81% 30.07 in 9.0 mi East 15.0 mph - 0.00 in Snow Light Snow
11:53 AM 35.1 °F 25.5 °F 30.9 °F 85% 30.07 in 8.0 mi East 15.0 mph - 0.00 in Snow Light Snow
12:53 PM 36.0 °F 26.7 °F 30.0 °F 79% 30.06 in 10.0 mi East 15.0 mph - 0.00 in   Overcast
1:53 PM 37.0 °F 27.4 °F 30.9 °F 79% 30.04 in 10.0 mi East 17.3 mph 23.0 mph N/A   Mostly Cloudy
2:42 PM 35.6 °F 25.2 °F 30.2 °F 81% 30.03 in 10.0 mi East 18.4 mph 24.2 mph N/A   Overcast
2:53 PM 36.0 °F 25.3 °F 30.9 °F 82% 30.03 in 10.0 mi East 19.6 mph - N/A   Overcast
3:53 PM 36.0 °F 25.6 °F 32.0 °F 86% 30.02 in 10.0 mi East 18.4 mph 24.2 mph N/A   Overcast
4:53 PM 36.0 °F 25.6 °F 32.0 °F 86% 30.01 in 10.0 mi East 18.4 mph - N/A   Overcast
5:53 PM 37.0 °F 27.0 °F 32.0 °F 82% 30.00 in 10.0 mi ESE 18.4 mph - N/A   Overcast
6:53 PM 37.0 °F 26.7 °F 32.0 °F 82% 29.98 in 10.0 mi ESE 19.6 mph 25.3 mph N/A   Overcast
7:53 PM 37.0 °F 27.4 °F 32.0 °F 82% 29.96 in 10.0 mi East 17.3 mph 25.3 mph N/A   Overcast
8:53 PM 36.0 °F 25.6 °F 32.0 °F 86% 29.95 in 10.0 mi East 18.4 mph - N/A   Overcast
9:53 PM 36.0 °F 25.6 °F 32.0 °F 86% 29.94 in 10.0 mi ESE 18.4 mph 23.0 mph N/A   Overcast
10:53 PM 36.0 °F 26.3 °F 32.0 °F 86% 29.93 in 10.0 mi East 16.1 mph - N/A   Overcast
11:53 PM 35.1 °F 23.8 °F 32.0 °F 89% 29.92 in 10.0 mi ESE 20.7 mph - N/A   Overcast